Back to catalog

GLOBALSTAR M080

AliveCommunicationsLEO
NORAD 38041·PAYLOAD·🇺🇸 United States

Launched Dec 28, 2011 from Baikonur Cosmodrome

Loading…

Next Passes (next 24 hours)

TLE

FreshSource: Space-Track

Epoch: Sep 14, 2026, 15:11 UTC

1 38041U 11080B   26257.63319972 -.00000091  00000-0  71468-4 0  9999
2 38041  52.0046 106.7293 0001177  88.5759 306.6795 12.62258801680185

Track GLOBALSTAR M080 in real time with AllMySat

Download on the App Store